TimePST,TemperatureF,Dew PointF,Humidity,Sea Level PressureIn,VisibilityMPH,Wind Direction,Wind SpeedMPH,Gust SpeedMPH,PrecipitationIn,Events,Conditions,WindDirDegrees,DateUTC
12:53 AM,32.0,26.1,79,29.80,10.0,NE,3.5,-,N/A,,Overcast,40,2013-02-19 08:53:00
1:53 AM,30.9,27.0,85,29.80,10.0,South,3.5,-,N/A,,Overcast,190,2013-02-19 09:53:00
2:36 AM,30.2,28.4,93,29.74,2.5,Calm,Calm,-,0.00,Snow,Light Snow,0,2013-02-19 10:36:00
2:48 AM,30.2,28.4,93,29.74,1.5,Calm,Calm,-,0.00,Snow,Light Snow,0,2013-02-19 10:48:00
2:53 AM,30.9,28.9,92,29.79,1.5,Calm,Calm,-,0.00,Snow,Light Snow,0,2013-02-19 10:53:00
3:34 AM,30.2,30.2,100,29.73,1.8,Calm,Calm,-,0.02,Snow,Light Snow,0,2013-02-19 11:34:00
3:43 AM,30.2,28.4,93,29.73,1.8,Calm,Calm,-,0.02,Snow,Light Snow,0,2013-02-19 11:43:00
3:53 AM,30.0,30.0,100,29.78,1.8,Calm,Calm,-,0.02,Snow,Light Snow,0,2013-02-19 11:53:00
4:16 AM,30.2,28.4,93,29.72,2.0,North,3.5,-,0.01,Snow,Light Snow,10,2013-02-19 12:16:00
4:53 AM,30.9,30.0,96,29.77,2.0,Calm,Calm,-,0.02,Snow,Light Snow,0,2013-02-19 12:53:00
5:19 AM,30.2,30.2,100,29.72,2.5,North,4.6,-,0.00,Snow,Light Snow,10,2013-02-19 13:19:00
5:27 AM,30.2,30.2,100,29.72,3.0,North,4.6,-,0.01,Snow,Light Snow,10,2013-02-19 13:27:00
5:44 AM,30.2,30.2,100,29.71,2.5,North,4.6,-,0.01,Snow,Light Snow,360,2013-02-19 13:44:00
5:53 AM,30.9,30.0,96,29.77,2.0,North,4.6,-,0.01,Snow,Light Snow,10,2013-02-19 13:53:00
6:19 AM,30.2,30.2,100,29.71,3.0,North,3.5,-,0.00,Snow,Light Snow,360,2013-02-19 14:19:00
6:53 AM,32.0,30.0,92,29.76,3.0,NNE,5.8,-,0.01,Snow,Light Snow,20,2013-02-19 14:53:00
7:00 AM,30.2,30.2,100,29.71,1.8,NNE,4.6,-,0.00,Snow,Light Snow,20,2013-02-19 15:00:00
7:18 AM,32.0,30.2,93,29.71,1.5,NNE,5.8,-,0.00,Snow,Light Snow,30,2013-02-19 15:18:00
7:42 AM,32.0,30.2,93,29.71,1.5,North,4.6,-,0.01,Snow,Light Snow,10,2013-02-19 15:42:00
7:53 AM,32.0,30.9,96,29.77,1.8,NNE,4.6,-,0.01,Snow,Light Snow,20,2013-02-19 15:53:00
8:05 AM,32.0,30.2,93,29.71,1.0,NNE,4.6,-,0.00,Snow,Light Snow,30,2013-02-19 16:05:00
8:25 AM,33.8,30.2,87,29.72,1.8,NE,5.8,-,0.00,Snow,Light Snow,40,2013-02-19 16:25:00
8:29 AM,33.8,30.2,87,29.72,3.0,NNE,5.8,-,0.00,Snow,Light Snow,30,2013-02-19 16:29:00
8:39 AM,33.8,30.2,87,29.72,4.0,NE,5.8,-,0.00,Snow,Light Snow,40,2013-02-19 16:39:00
8:53 AM,33.1,30.9,92,29.77,3.0,NE,5.8,-,0.00,Snow,Light Snow,40,2013-02-19 16:53:00
9:05 AM,33.8,30.2,87,29.71,2.5,NE,5.8,-,0.00,Snow,Light Snow,40,2013-02-19 17:05:00
9:16 AM,33.8,30.2,87,29.71,4.0,NNE,4.6,-,0.01,Snow,Light Snow,30,2013-02-19 17:16:00
10:12 AM,33.8,32.0,93,29.71,3.0,Calm,Calm,-,0.00,Snow,Light Snow,0,2013-02-19 18:12:00
10:20 AM,33.8,32.0,93,29.71,2.0,NNE,3.5,-,0.00,Snow,Light Snow,20,2013-02-19 18:20:00
10:35 AM,35.6,32.0,87,29.71,4.0,NNE,3.5,-,0.00,Snow,Light Snow,20,2013-02-19 18:35:00
11:53 AM,37.0,33.1,86,29.76,10.0,Calm,Calm,-,0.00,,Overcast,0,2013-02-19 19:53:00
12:08 PM,35.6,33.8,93,29.71,10.0,NNW,4.6,-,N/A,,Overcast,340,2013-02-19 20:08:00
12:15 PM,35.6,33.8,93,29.71,10.0,NNW,3.5,-,N/A,,Overcast,340,2013-02-19 20:15:00
12:39 PM,35.6,33.8,93,29.71,9.0,NW,4.6,-,0.00,,Overcast,320,2013-02-19 20:39:00
12:53 PM,35.1,33.1,92,29.76,10.0,WSW,5.8,-,0.00,,Overcast,250,2013-02-19 20:53:00
1:35 PM,33.8,33.8,100,29.72,10.0,West,3.5,-,0.00,,Overcast,260,2013-02-19 21:35:00
1:53 PM,35.1,33.1,92,29.77,6.0,West,3.5,-,0.01,Snow,Light Snow,270,2013-02-19 21:53:00
2:39 PM,33.8,33.8,100,29.73,9.0,Calm,Calm,-,0.00,,Overcast,0,2013-02-19 22:39:00
2:53 PM,34.0,33.1,96,29.78,6.0,West,3.5,-,0.01,,Overcast,260,2013-02-19 22:53:00
4:29 PM,33.8,33.8,100,29.75,2.5,Calm,Calm,-,0.01,Snow,Light Snow,0,2013-02-20 00:29:00
4:39 PM,33.8,32.0,93,29.75,1.5,Calm,Calm,-,0.01,Snow,Light Snow,0,2013-02-20 00:39:00
4:49 PM,33.8,33.8,100,29.75,2.5,Calm,Calm,-,0.01,Snow,Light Snow,0,2013-02-20 00:49:00
4:53 PM,33.1,33.1,100,29.81,3.0,Calm,Calm,-,0.01,Snow,Light Snow,0,2013-02-20 00:53:00
5:12 PM,33.8,33.8,100,29.75,6.0,Calm,Calm,-,0.01,,Overcast,0,2013-02-20 01:12:00
5:40 PM,33.8,32.0,93,29.76,8.0,SSE,3.5,-,0.01,,Overcast,160,2013-02-20 01:40:00
5:53 PM,33.1,32.0,96,29.82,7.0,South,4.6,-,0.01,,Overcast,170,2013-02-20 01:53:00
6:53 PM,33.1,32.0,96,29.83,5.0,SSW,3.5,-,0.00,Snow,Light Snow,200,2013-02-20 02:53:00
7:03 PM,33.8,32.0,93,29.78,5.0,SSW,3.5,-,0.00,Snow,Light Snow,200,2013-02-20 03:03:00
7:10 PM,33.8,32.0,93,29.78,5.0,South,3.5,-,0.00,Snow,Light Snow,190,2013-02-20 03:10:00
7:53 PM,32.0,30.9,96,29.85,6.0,Calm,Calm,-,0.00,,Overcast,0,2013-02-20 03:53:00
8:53 PM,30.9,30.9,100,29.86,4.0,SE,3.5,-,N/A,,Overcast,140,2013-02-20 04:53:00
9:06 PM,30.2,30.2,100,29.81,1.8,SSE,3.5,-,N/A,,Overcast,150,2013-02-20 05:06:00
9:14 PM,30.2,30.2,100,29.81,0.8,Calm,Calm,-,0.00,Snow,Light Snow,0,2013-02-20 05:14:00
9:25 PM,30.2,30.2,100,29.81,1.2,Calm,Calm,-,0.00,Snow,Light Snow,0,2013-02-20 05:25:00
9:53 PM,30.9,30.9,100,29.87,0.8,Calm,Calm,-,0.00,,Overcast,0,2013-02-20 05:53:00
10:31 PM,30.2,30.2,100,29.82,0.5,Calm,Calm,-,N/A,Fog,Light Freezing Fog,0,2013-02-20 06:31:00
10:41 PM,30.2,30.2,100,29.83,0.5,Calm,Calm,-,N/A,Fog,Light Freezing Fog,0,2013-02-20 06:41:00
10:53 PM,30.0,28.9,96,29.88,0.5,Calm,Calm,-,N/A,Fog,Light Freezing Fog,0,2013-02-20 06:53:00
11:10 PM,30.2,30.2,100,29.83,1.0,SSE,3.5,-,N/A,,Overcast,160,2013-02-20 07:10:00
11:25 PM,30.2,30.2,100,29.84,1.8,SSE,3.5,-,N/A,,Overcast,160,2013-02-20 07:25:00
11:37 PM,30.2,30.2,100,29.84,2.5,SE,3.5,-,N/A,,Overcast,140,2013-02-20 07:37:00
11:48 PM,30.2,30.2,100,29.84,3.0,Calm,Calm,-,N/A,,Overcast,0,2013-02-20 07:48:00
11:53 PM,30.9,30.9,100,29.89,4.0,Calm,Calm,-,N/A,,Overcast,0,2013-02-20 07:53:00